Weather History for Medford, WI

Change the Weather History Date:

Sunday, November 18, 2012

  Actual Average Record
Temperature  
Mean Temperature 45 °F -  
Max Temperature 53 °F 39 °F 65 °F (1953)
Min Temperature 37 °F 24 °F 2 °F (1959)
Degree Days  
Heating Degree Days 20    
Moisture  
Dew Point 33 °F    
Average Humidity 66    
Maximum Humidity 87    
Minimum Humidity 47    
Precipitation  
Precipitation 0.00 in - - ()
Sea Level Pressure  
Sea Level Pressure 30.24 in    
Wind  
Wind Speed 9 mph (SSE)    
Max Wind Speed 14 mph    
Max Gust Speed 20 mph    
Visibility 8 miles    
Events      
Averages and records for this station are not official NWS values.
T = Trace of Precipitation, MM = Missing Value Source: NWS Daily Summary

Daily Weather History Graph

Daily Weather History Graph

Search for Another Location

Airport:

Trip Planner

Search our weather history database for the weather conditions in past years. The results will help you decide how hot, cold, wet, or windy it might be!

Date:

Astronomy

Nov. 18, 2012 Rise Set
Actual Time 7:03 AM CST 4:28 PM CST
Civil Twilight 6:31 AM CST 5:00 PM CST
Nautical Twilight 5:55 AM CST 5:36 PM CST
Astronomical Twilight 5:20 AM CST 6:11 PM CST
Moon 11:28 AM CST (11/18) 9:52 PM CST (11/18)
Length of Visible Light 10h 29m
Length of Day
9h 24m
Waxing Crescent, 30% of the Moon is Illuminated
Nov 18
Waxing Crescent
Nov 20
First Quarter
Nov 28
Full
Dec 6
Last Quarter
Dec 13
New

Hourly Weather History & Observations

Time (CST) Temp. Windchill Dew Point Humidity Pressure Visibility Wind Dir Wind Speed Gust Speed Precip Events Conditions
12:15 AM 41.0 °F 35.2 °F 33.8 °F 76% 30.32 in 7.0 mi SSE 9.2 mph - N/A   Clear
12:35 AM 41.0 °F 34.7 °F 33.8 °F 76% 30.31 in 7.0 mi SSE 10.4 mph - N/A   Clear
12:55 AM 39.2 °F 34.2 °F 32.0 °F 75% 30.31 in 7.0 mi SSE 6.9 mph - N/A   Clear
1:15 AM 39.2 °F 32.5 °F 32.0 °F 75% 30.31 in 7.0 mi SSE 10.4 mph - N/A   Clear
1:55 AM 39.2 °F 32.5 °F 32.0 °F 75% 30.31 in 7.0 mi SSE 10.4 mph - N/A   Clear
2:15 AM 39.2 °F 33.0 °F 32.0 °F 75% 30.31 in 7.0 mi SSE 9.2 mph - N/A   Clear
2:35 AM 39.2 °F 33.6 °F 32.0 °F 75% 30.31 in 7.0 mi SSE 8.1 mph - N/A   Clear
2:55 AM 39.2 °F 34.2 °F 32.0 °F 75% 30.31 in 7.0 mi SSE 6.9 mph - N/A   Clear
3:15 AM 37.4 °F 31.4 °F 32.0 °F 81% 30.30 in 7.0 mi SSE 8.1 mph - N/A   Clear
3:35 AM 37.4 °F 31.4 °F 32.0 °F 81% 30.30 in 7.0 mi SSE 8.1 mph - N/A   Clear
3:55 AM 37.4 °F 31.4 °F 32.0 °F 81% 30.30 in 7.0 mi SSE 8.1 mph - N/A   Clear
4:15 AM 37.4 °F 31.4 °F 32.0 °F 81% 30.30 in 7.0 mi SSE 8.1 mph - N/A   Clear
4:35 AM 37.4 °F 31.4 °F 32.0 °F 81% 30.30 in 7.0 mi SSE 8.1 mph - N/A   Clear
4:55 AM 37.4 °F 31.4 °F 32.0 °F 81% 30.30 in 7.0 mi SSE 8.1 mph - N/A   Clear
5:15 AM 37.4 °F 31.4 °F 32.0 °F 81% 30.29 in 7.0 mi SE 8.1 mph - N/A   Clear
5:35 AM 37.4 °F 32.1 °F 32.0 °F 81% 30.28 in 7.0 mi SSE 6.9 mph - N/A   Clear
5:55 AM 37.4 °F 31.4 °F 32.0 °F 81% 30.28 in 7.0 mi SSE 8.1 mph - N/A   Clear
6:15 AM 37.4 °F 31.4 °F 32.0 °F 81% 30.28 in 7.0 mi SE 8.1 mph - N/A   Clear
6:35 AM 37.4 °F 31.4 °F 32.0 °F 81% 30.27 in 5.0 mi SSE 8.1 mph - N/A   Haze
6:55 AM 37.4 °F 32.1 °F 32.0 °F 81% 30.27 in 5.0 mi SE 6.9 mph - N/A   Haze
7:15 AM 37.4 °F 31.4 °F 32.0 °F 81% 30.27 in 4.0 mi SE 8.1 mph - N/A   Haze
7:35 AM 37.4 °F 31.4 °F 32.0 °F 81% 30.27 in 4.0 mi SE 8.1 mph - N/A   Haze
7:55 AM 37.4 °F 31.4 °F 32.0 °F 81% 30.27 in 4.0 mi SE 8.1 mph - N/A   Haze
8:15 AM 37.4 °F 32.1 °F 33.8 °F 87% 30.26 in 5.0 mi SSE 6.9 mph - N/A   Haze
8:35 AM 39.2 °F 33.6 °F 33.8 °F 81% 30.26 in 5.0 mi SSE 8.1 mph - N/A   Haze
8:55 AM 39.2 °F 33.0 °F 33.8 °F 81% 30.25 in 5.0 mi SSE 9.2 mph - N/A   Haze
9:15 AM 41.0 °F 35.2 °F 33.8 °F 76% 30.25 in 5.0 mi SSE 9.2 mph - N/A   Haze
9:35 AM 42.8 °F 36.6 °F 33.8 °F 70% 30.25 in 7.0 mi SSE 11.5 mph 16.1 mph N/A   Clear
9:55 AM 44.6 °F 39.2 °F 33.8 °F 66% 30.25 in 7.0 mi SSE 10.4 mph - N/A   Clear
10:15 AM 44.6 °F 40.2 °F 33.8 °F 66% 30.25 in 7.0 mi SSE 8.1 mph - N/A   Clear
10:35 AM 44.6 °F 40.2 °F 35.6 °F 71% 30.25 in 7.0 mi SSE 8.1 mph - N/A   Clear
10:55 AM 48.2 °F - 35.6 °F 62% 30.24 in 10.0 mi South 10.4 mph - N/A   Clear
11:15 AM 48.2 °F - 35.6 °F 62% 30.24 in 10.0 mi SSE 11.5 mph - N/A   Clear
11:35 AM 51.8 °F - 35.6 °F 54% 30.23 in 10.0 mi SSE 11.5 mph - N/A   Clear
11:55 AM 51.8 °F - 35.6 °F 54% 30.22 in 10.0 mi SSE 10.4 mph - N/A   Clear
12:15 PM 51.8 °F - 33.8 °F 50% 30.21 in 10.0 mi SSE 10.4 mph 18.4 mph N/A   Scattered Clouds
12:35 PM 53.6 °F - 33.8 °F 47% 30.21 in 10.0 mi South 10.4 mph - N/A   Scattered Clouds
12:55 PM 51.8 °F - 33.8 °F 50% 30.21 in 10.0 mi SSE 9.2 mph - N/A   Mostly Cloudy
1:15 PM 53.6 °F - 33.8 °F 47% 30.20 in 10.0 mi South 8.1 mph - N/A   Overcast
1:35 PM 53.6 °F - 33.8 °F 47% 30.20 in 10.0 mi SSE 8.1 mph - N/A   Overcast
1:55 PM 53.6 °F - 33.8 °F 47% 30.19 in 10.0 mi South 13.8 mph 19.6 mph N/A   Overcast
2:15 PM 53.6 °F - 33.8 °F 47% 30.19 in 10.0 mi SSE 11.5 mph - N/A   Overcast
2:35 PM 53.6 °F - 33.8 °F 47% 30.19 in 10.0 mi SSE 13.8 mph - N/A   Mostly Cloudy
2:55 PM 53.6 °F - 33.8 °F 47% 30.19 in 10.0 mi SSE 9.2 mph 16.1 mph N/A   Mostly Cloudy
3:15 PM 53.6 °F - 33.8 °F 47% 30.18 in 10.0 mi SSE 9.2 mph 16.1 mph N/A   Overcast
3:35 PM 53.6 °F - 33.8 °F 47% 30.18 in 10.0 mi SSE 10.4 mph 17.3 mph N/A   Overcast
3:55 PM 51.8 °F - 33.8 °F 50% 30.18 in 10.0 mi SSE 10.4 mph - N/A   Scattered Clouds
4:15 PM 51.8 °F - 32.0 °F 47% 30.18 in 10.0 mi SSE 9.2 mph - N/A   Scattered Clouds
4:35 PM 51.8 °F - 32.0 °F 47% 30.19 in 10.0 mi SSE 9.2 mph - N/A   Scattered Clouds
4:55 PM 51.8 °F - 32.0 °F 47% 30.19 in 10.0 mi SSE 10.4 mph - N/A   Scattered Clouds
5:15 PM 50.0 °F - 30.2 °F 47% 30.19 in 10.0 mi SSE 10.4 mph - N/A   Scattered Clouds
5:35 PM 50.0 °F - 30.2 °F 47% 30.20 in 10.0 mi SSE 9.2 mph - N/A   Scattered Clouds
5:55 PM 48.2 °F - 32.0 °F 54% 30.20 in 10.0 mi SE 10.4 mph - N/A   Mostly Cloudy
6:15 PM 48.2 °F - 33.8 °F 58% 30.20 in 10.0 mi SE 9.2 mph - N/A   Overcast
6:35 PM 48.2 °F - 33.8 °F 58% 30.20 in 10.0 mi SSE 10.4 mph - N/A   Overcast
6:55 PM 48.2 °F - 33.8 °F 58% 30.20 in 10.0 mi SSE 11.5 mph 17.3 mph N/A   Overcast
7:15 PM 48.2 °F - 33.8 °F 58% 30.19 in 10.0 mi SSE 10.4 mph 19.6 mph N/A   Overcast
7:35 PM 48.2 °F - 33.8 °F 58% 30.19 in 10.0 mi SSE 12.7 mph 18.4 mph N/A   Overcast
8:15 PM 46.4 °F 41.5 °F 33.8 °F 62% 30.19 in 10.0 mi SSE 10.4 mph 17.3 mph N/A   Mostly Cloudy
8:35 PM 46.4 °F 41.5 °F 33.8 °F 62% 30.20 in 10.0 mi SSE 10.4 mph - N/A   Overcast
8:55 PM 44.6 °F 38.8 °F 33.8 °F 66% 30.19 in 10.0 mi SSE 11.5 mph 17.3 mph N/A   Mostly Cloudy
9:15 PM 44.6 °F 39.2 °F 33.8 °F 66% 30.20 in 10.0 mi SSE 10.4 mph - N/A   Scattered Clouds
9:35 PM 44.6 °F 39.7 °F 33.8 °F 66% 30.19 in 10.0 mi SSE 9.2 mph - N/A   Clear
9:55 PM 44.6 °F 39.2 °F 33.8 °F 66% 30.20 in 10.0 mi SSE 10.4 mph - N/A   Mostly Cloudy
10:35 PM 44.6 °F 39.7 °F 35.6 °F 71% 30.20 in 10.0 mi SSE 9.2 mph - N/A   Scattered Clouds
10:55 PM 44.6 °F 39.7 °F 33.8 °F 66% 30.20 in 10.0 mi SSE 9.2 mph - N/A   Scattered Clouds
11:15 PM 44.6 °F 40.2 °F 35.6 °F 71% 30.20 in 10.0 mi SSE 8.1 mph - N/A   Scattered Clouds
11:55 PM 42.8 °F 38.0 °F 33.8 °F 70% 30.19 in 10.0 mi SSE 8.1 mph - N/A   Scattered Clouds